Home > Weather > Rapid City > Past weeks

Flag for USA Past Weather in Rapid City, South Dakota, USA — Yesterday and Last 2 Weeks

Now
64 °F

Sunny.


Feels Like: 64 °F
Forecast: 50 / 79 °F
Wind: 8 mph from South

Location: Ellsworth Air Force Base

Current Time: Aug 27, 2016 at 9:28:13 AM

Latest Report: Aug 27, 2016 at 8:58 AM


Visibility: 10 mi

Pressure: 29.96 "Hg (26.71 "Hg at 977m altitude)

Humidity: 72%

Dew Point: 55 °F

Location of Rapid CityLocation

Past Weather in Rapid City — Graph

°F

Rapid City Temperature Yesterday

Maximum temperature yesterday: 69 °F (at 4:58 PM)
Minimum temperature yesterday: 53 °F (at 6:58 AM)
Average temperature yesterday: 59 °F

High & Low Weather Summary for the Past Weeks

 TemperatureHumidityPressure
High98 °F (Aug 22, 1:58 PM)100% (Aug 18, 6:58 PM)30.28 "Hg (Aug 18, 6:58 PM)
Low44 °F (Aug 20, 2:58 AM)10% (Aug 22, 2:58 PM)29.56 "Hg (Aug 22, 3:58 PM)
Average68 °F57%29.99 "Hg
* Reported Aug 12 7:58 AM — Aug 27 7:58 AM, Rapid City, Weather by CustomWeather, © 2016

Note: Actual official high and low records may vary slightly from our data, if they occured in-between our weather recording intervals... More about our weather records

Advertising

Rapid City Weather History for the Previous 24 Hours

Scroll right to see more
 ConditionsComfort  
Time TempWeatherWind HumidityBarometerVisibility
7:58 AM
Sat, Aug 27
59 °FSunny.6 mph87%29.96 "HgN/A
6:58 AM56 °FPartly sunny.5 mph91%29.96 "Hg10 mi
5:58 AM56 °FPassing clouds.10 mph91%29.96 "HgN/A
5:03 AM55 °FPartly cloudy.2 mph94%29.97 "Hg10 mi
4:58 AM56 °FPartly cloudy.2 mph93%29.95 "Hg10 mi
4:02 AM55 °FPartly cloudy.6 mph94%29.99 "Hg10 mi
3:58 AM54 °FLight rain. Partly cloudy.1 mph97%29.95 "Hg10 mi
2:58 AM54 °FPassing clouds.7 mph97%29.96 "HgN/A
1:58 AM53 °FPassing clouds.8 mph100%29.97 "Hg10 mi
12:58 AM54 °FPassing clouds.10 mph100%29.98 "Hg10 mi
12:03 AM59 °FStrong thunderstorms. Partly cloudy.16 mph94%N/AN/A
11:58 PM
Fri, Aug 26
59 °FThunderstorms. Mostly cloudy.17 mph94%30.04 "HgN/A
10:58 PM58 °FPartly cloudy.7 mph100%30.01 "Hg10 mi
9:58 PM59 °FLow clouds.2 mph100%30.03 "Hg10 mi
8:58 PM58 °FPassing clouds.6 mph100%30.02 "HgN/A
7:58 PM60 °FPassing clouds.7 mph97%30.03 "Hg10 mi
6:58 PM63 °FBroken clouds.5 mph85%30.01 "HgN/A
5:58 PM67 °FThunderstorms. Broken clouds.9 mph64%N/AN/A
4:58 PM69 °FSunny.14 mph61%29.94 "HgN/A
3:58 PM68 °FSunny.12 mph64%29.98 "Hg10 mi
2:58 PM66 °FPassing clouds.16 mph67%N/AN/A
1:58 PM64 °FPassing clouds.10 mph72%30.04 "Hg10 mi
12:58 PM61 °FPartly sunny.9 mph77%30.07 "Hg10 mi
12:03 PM61 °FPartly sunny.10 mph77%30.10 "Hg10 mi
11:58 AM60 °FPartly sunny.10 mph78%30.09 "Hg10 mi
10:58 AM57 °FBroken clouds.8 mph84%30.12 "Hg10 mi
9:58 AM56 °FBroken clouds.10 mph95%30.13 "Hg10 mi
Weather by CustomWeather, © 2016

See weather overviewHow to use our weather pages